Las Cruces, NM

7:06 PM MDT on May 23, 2017 (GMT -0600)
Las Cruces International

Weather History for KLRU - June, 2014

Change the Weather History Date:

Monday, June 16, 2014

  Actual Average Record
Temperature  
Mean Temperature 78 °F -  
Max Temperature 95 °F 91 °F 105 °F (2008)
Min Temperature 62 °F 63 °F 53 °F (1997)
Cooling Degree Days 14    
Growing Degree Days 28 (Base 50)    
Moisture  
Dew Point 26 °F    
Average Humidity 13    
Maximum Humidity 18    
Minimum Humidity 10    
Precipitation  
Precipitation 0.00 in - - ()
Sea Level Pressure  
Sea Level Pressure 30.01 in    
Wind  
Wind Speed 9 mph (West)    
Max Wind Speed 26 mph    
Max Gust Speed 36 mph    
Visibility 10 miles    
Events      
Averages and records for this station are not official NWS values.
T = Trace of Precipitation, MM = Missing Value Source: NWS Daily Summary

Daily Weather History Graph

Daily Weather History Graph

Search for Another Location

Airport or City:

Trip Planner

Search our weather history database for the weather conditions in past years. The results will help you decide how hot, cold, wet, or windy it might be!

Date:

Astronomy

Jun. 16, 2014 Rise Set
Actual Time 6:00 AM MDT 8:16 PM MDT
Civil Twilight 5:32 AM MDT 8:44 PM MDT
Nautical Twilight 4:57 AM MDT 9:19 PM MDT
Astronomical Twilight 4:19 AM MDT 9:57 PM MDT
Moon 11:23 PM MDT (6/16) 9:56 AM MDT (6/16)
Length of Visible Light 15h 12m
Length of Day
14h 15m
Waning Gibbous, 82% of the Moon is Illuminated
Jun 16
Waning Gibbous
Jun 19
Last Quarter
Jun 27
New
Jul 5
First Quarter
Jul 12
Full

Hourly Weather History & Observations

Time (MDT) Temp. Dew Point Humidity Pressure Visibility Wind Dir Wind Speed Gust Speed Precip Events Conditions
12:15 AM 74.1 °F 17.6 °F 12% 29.99 in 10.0 mi WNW 9.2 mph - N/A   Clear
12:35 AM 73.2 °F 17.6 °F 12% 29.99 in 10.0 mi WNW 6.9 mph - N/A   Clear
12:55 AM 72.0 °F 17.4 °F 13% 29.99 in 10.0 mi WNW 6.9 mph - N/A   Clear
1:15 AM 71.6 °F 17.4 °F 13% 29.99 in 10.0 mi WNW 8.1 mph - N/A   Clear
1:35 AM 71.2 °F 17.2 °F 13% 29.99 in 10.0 mi West 4.6 mph - N/A   Clear
1:55 AM 70.2 °F 17.2 °F 13% 29.99 in 10.0 mi WSW 4.6 mph - N/A   Clear
2:15 AM 68.2 °F 16.9 °F 14% 30.00 in 10.0 mi SW 5.8 mph - N/A   Clear
2:35 AM 68.5 °F 17.2 °F 14% 30.00 in 10.0 mi WSW 3.5 mph - N/A   Clear
2:55 AM 68.2 °F 17.6 °F 14% 30.00 in 10.0 mi West 6.9 mph - N/A   Clear
3:15 AM 65.7 °F 16.7 °F 15% 30.01 in 10.0 mi West 5.8 mph - N/A   Clear
3:35 AM 63.3 °F 16.3 °F 16% 30.01 in 10.0 mi West 4.6 mph - N/A   Clear
3:55 AM 63.5 °F 16.3 °F 16% 30.02 in 10.0 mi Calm Calm - N/A   Clear
4:15 AM 64.0 °F 16.7 °F 16% 30.02 in 10.0 mi West 5.8 mph - N/A   Clear
4:35 AM 62.6 °F 16.3 °F 17% 30.03 in 10.0 mi West 3.5 mph - N/A   Clear
4:55 AM 64.6 °F 16.5 °F 16% 30.03 in 10.0 mi Calm Calm - N/A   Clear
5:15 AM 63.0 °F 16.9 °F 17% 30.04 in 10.0 mi SSW 5.8 mph - N/A   Clear
5:35 AM 64.9 °F 16.9 °F 16% 30.04 in 10.0 mi SW 8.1 mph - N/A   Clear
5:55 AM 64.4 °F 17.4 °F 16% 30.05 in 10.0 mi SW 6.9 mph - N/A   Clear
6:15 AM 63.9 °F 17.6 °F 17% 30.05 in 10.0 mi SW 5.8 mph - N/A   Clear
6:35 AM 63.5 °F 17.6 °F 17% 30.05 in 10.0 mi West 5.8 mph - N/A   Clear
6:55 AM 66.4 °F 17.6 °F 15% 30.06 in 10.0 mi West 8.1 mph - N/A   Clear
7:15 AM 69.4 °F 18.9 °F 15% 30.07 in 10.0 mi West 4.6 mph - N/A   Clear
7:35 AM 73.0 °F 19.9 °F 14% 30.08 in 10.0 mi West 3.5 mph - N/A   Clear
7:55 AM 75.6 °F 21.4 °F 13% 30.08 in 10.0 mi West 4.6 mph - N/A   Clear
8:15 AM 78.4 °F 23.2 °F 13% 30.08 in 10.0 mi West 8.1 mph - N/A   Clear
8:35 AM 79.7 °F 23.7 °F 13% 30.08 in 10.0 mi West 6.9 mph - N/A   Clear
8:55 AM 80.8 °F 24.6 °F 13% 30.09 in 10.0 mi WSW 8.1 mph - N/A   Clear
9:15 AM 81.5 °F 24.6 °F 12% 30.09 in 10.0 mi WSW 8.1 mph - N/A   Clear
9:35 AM 83.5 °F 26.8 °F 13% 30.09 in 10.0 mi West 9.2 mph - N/A   Clear
9:55 AM 84.9 °F 29.3 °F 13% 30.09 in 10.0 mi West 10.4 mph - N/A   Clear
10:15 AM 85.8 °F 31.3 °F 14% 30.09 in 10.0 mi West 12.7 mph 17.3 mph N/A   Clear
10:35 AM 87.3 °F 32.0 °F 14% 30.09 in 10.0 mi West 16.1 mph 20.7 mph N/A   Clear
10:55 AM 87.6 °F 32.5 °F 14% 30.09 in 10.0 mi WSW 10.4 mph 23.0 mph N/A   Clear
11:15 AM 88.2 °F 32.5 °F 14% 30.08 in 10.0 mi West 8.1 mph 20.7 mph N/A   Clear
11:35 AM 90.0 °F 33.8 °F 14% 30.08 in 10.0 mi West 23.0 mph 28.8 mph N/A   Clear
12:15 PM 90.7 °F 32.9 °F 13% 30.07 in 10.0 mi WSW 20.7 mph 25.3 mph N/A   Clear
12:35 PM 90.9 °F 32.9 °F 13% 30.07 in 10.0 mi West 13.8 mph 29.9 mph N/A   Clear
12:55 PM 92.5 °F 32.2 °F 12% 30.06 in 10.0 mi WSW 19.6 mph 24.2 mph N/A   Clear
1:15 PM 91.4 °F 31.6 °F 12% 30.05 in 10.0 mi West 24.2 mph 34.5 mph N/A   Scattered Clouds
1:35 PM 94.1 °F 31.5 °F 11% 30.04 in 10.0 mi WSW 16.1 mph 32.2 mph N/A   Scattered Clouds
1:55 PM 93.2 °F 31.5 °F 11% 30.03 in 10.0 mi West 26.5 mph 35.7 mph N/A   Clear
2:15 PM 94.6 °F 31.3 °F 11% 30.02 in 10.0 mi West 15.0 mph 31.1 mph N/A   Clear
2:35 PM 94.3 °F 32.0 °F 11% 30.01 in 10.0 mi West 16.1 mph 26.5 mph N/A   Clear
2:55 PM 92.7 °F 32.0 °F 12% 30.00 in 10.0 mi West 18.4 mph 24.2 mph N/A   Clear
3:15 PM 94.6 °F 32.0 °F 11% 29.99 in 10.0 mi WNW 12.7 mph 28.8 mph N/A   Clear
3:35 PM 94.3 °F 32.0 °F 11% 29.99 in 10.0 mi West 10.4 mph 20.7 mph N/A   Clear
3:55 PM 95.2 °F 32.0 °F 11% 29.98 in 10.0 mi WSW 12.7 mph 27.6 mph N/A   Clear
4:15 PM 95.4 °F 31.1 °F 10% 29.97 in 10.0 mi WSW 17.3 mph 29.9 mph N/A   Clear
4:35 PM 95.4 °F 30.4 °F 10% 29.96 in 10.0 mi West 20.7 mph 26.5 mph N/A   Clear
4:55 PM 95.5 °F 30.4 °F 10% 29.96 in 10.0 mi WSW 17.3 mph 25.3 mph N/A   Clear
5:15 PM 95.4 °F 30.7 °F 10% 29.95 in 10.0 mi WSW 18.4 mph 23.0 mph N/A   Clear
5:35 PM 93.7 °F 30.7 °F 11% 29.95 in 10.0 mi West 21.9 mph 29.9 mph N/A   Clear
5:55 PM 94.8 °F 31.1 °F 10% 29.94 in 10.0 mi West 16.1 mph 28.8 mph N/A   Clear
6:15 PM 93.0 °F 31.3 °F 11% 29.94 in 10.0 mi WSW 18.4 mph 25.3 mph N/A   Clear
6:35 PM 93.0 °F 30.9 °F 11% 29.94 in 10.0 mi WSW 17.3 mph - N/A   Clear
6:55 PM 92.1 °F 31.1 °F 11% 29.94 in 10.0 mi WSW 15.0 mph 19.6 mph N/A   Clear
7:15 PM 91.0 °F 30.7 °F 12% 29.94 in 10.0 mi West 15.0 mph 20.7 mph N/A   Clear
7:35 PM 90.7 °F 30.7 °F 12% 29.94 in 10.0 mi WSW 9.2 mph - N/A   Clear
7:55 PM 90.1 °F 31.1 °F 12% 29.95 in 10.0 mi West 17.3 mph 24.2 mph N/A   Clear
8:15 PM 89.1 °F 31.1 °F 13% 29.95 in 10.0 mi West 12.7 mph 23.0 mph N/A   Clear
8:35 PM 87.8 °F 30.9 °F 13% 29.95 in 10.0 mi West 11.5 mph 17.3 mph N/A   Clear
8:55 PM 86.9 °F 31.1 °F 13% 29.96 in 10.0 mi West 15.0 mph 18.4 mph N/A   Clear
9:15 PM 86.4 °F 31.1 °F 14% 29.96 in 10.0 mi West 12.7 mph - N/A   Clear
9:35 PM 85.3 °F 31.1 °F 14% 29.98 in 10.0 mi West 12.7 mph - N/A   Clear
9:55 PM 84.6 °F 31.1 °F 15% 29.99 in 10.0 mi WNW 8.1 mph - N/A   Clear
10:15 PM 82.4 °F 30.6 °F 15% 29.99 in 10.0 mi WNW 9.2 mph - N/A   Clear
10:35 PM 81.3 °F 30.7 °F 16% 30.00 in 10.0 mi WNW 5.8 mph - N/A   Clear
10:55 PM 79.3 °F 30.9 °F 17% 30.00 in 10.0 mi WNW 6.9 mph - N/A   Clear
11:15 PM 79.7 °F 31.6 °F 17% 30.01 in 10.0 mi WNW 6.9 mph - N/A   Clear
11:35 PM 78.8 °F 31.6 °F 18% 30.01 in 10.0 mi WNW 6.9 mph - N/A   Clear